TimeCST,TemperatureF,Dew PointF,Humidity,Sea Level PressureIn,VisibilityMPH,Wind Direction,Wind SpeedMPH,Gust SpeedMPH,PrecipitationIn,Events,Conditions,WindDirDegrees,DateUTC
12:56 AM,19.9,10.0,65,30.03,10.0,SSW,8.1,-,N/A,,Clear,200,2013-01-16 06:56:00
1:56 AM,21.0,10.0,63,30.01,10.0,SSW,6.9,-,N/A,,Clear,200,2013-01-16 07:56:00
3:56 AM,21.0,9.0,60,29.94,10.0,Calm,Calm,-,N/A,,Clear,0,2013-01-16 09:56:00
4:56 AM,21.0,9.0,60,29.91,10.0,SSW,5.8,-,N/A,,Clear,210,2013-01-16 10:56:00
5:56 AM,21.0,10.0,63,29.87,10.0,SSW,10.4,17.3,N/A,,Clear,210,2013-01-16 11:56:00
6:56 AM,23.0,12.0,63,29.86,10.0,SW,9.2,-,N/A,,Mostly Cloudy,220,2013-01-16 12:56:00
7:56 AM,24.1,12.9,62,29.84,10.0,SW,9.2,-,N/A,,Overcast,220,2013-01-16 13:56:00
8:56 AM,26.1,14.0,60,29.83,10.0,SW,8.1,-,N/A,,Overcast,230,2013-01-16 14:56:00
9:39 AM,28.4,15.8,59,29.80,8.0,WSW,9.2,18.4,N/A,,Overcast,240,2013-01-16 15:39:00
9:56 AM,28.0,17.1,63,29.82,10.0,WSW,11.5,-,N/A,,Overcast,240,2013-01-16 15:56:00
10:09 AM,28.4,17.6,64,29.80,10.0,WSW,13.8,18.4,N/A,,Overcast,240,2013-01-16 16:09:00
10:20 AM,28.4,17.6,64,29.80,10.0,WSW,15.0,20.7,N/A,,Overcast,250,2013-01-16 16:20:00
10:56 AM,28.9,18.0,64,29.81,10.0,West,10.4,20.7,N/A,,Overcast,260,2013-01-16 16:56:00
11:56 AM,30.0,21.0,69,29.80,9.0,West,10.4,-,0.00,,Overcast,260,2013-01-16 17:56:00
12:21 PM,30.2,21.2,69,29.77,6.0,West,15.0,21.9,0.00,Snow,Light Snow,270,2013-01-16 18:21:00
12:56 PM,32.0,23.0,69,29.79,9.0,West,9.2,-,0.00,,Overcast,270,2013-01-16 18:56:00
1:56 PM,33.1,24.1,70,29.81,9.0,West,8.1,-,N/A,,Overcast,270,2013-01-16 19:56:00
2:56 PM,34.0,26.1,73,29.83,9.0,West,9.2,-,N/A,,Overcast,260,2013-01-16 20:56:00
3:11 PM,35.6,26.6,70,29.81,9.0,West,9.2,-,N/A,,Overcast,270,2013-01-16 21:11:00
3:56 PM,35.1,27.0,72,29.85,9.0,West,6.9,-,N/A,,Overcast,280,2013-01-16 21:56:00
4:56 PM,35.1,28.0,76,29.88,9.0,Calm,Calm,-,N/A,,Overcast,0,2013-01-16 22:56:00
5:56 PM,33.1,28.0,82,29.92,9.0,Calm,Calm,-,N/A,,Overcast,0,2013-01-16 23:56:00
6:56 PM,36.0,28.9,76,29.94,10.0,West,5.8,-,N/A,,Overcast,270,2013-01-17 00:56:00
7:56 PM,37.0,28.9,73,29.98,10.0,WNW,13.8,-,N/A,,Overcast,300,2013-01-17 01:56:00
8:09 PM,37.4,28.4,70,29.97,10.0,WNW,12.7,-,N/A,,Overcast,300,2013-01-17 02:09:00
8:45 PM,37.4,28.4,70,29.99,10.0,NW,6.9,-,N/A,,Overcast,310,2013-01-17 02:45:00
8:56 PM,36.0,28.0,73,30.02,10.0,NW,9.2,-,N/A,,Overcast,310,2013-01-17 02:56:00
9:56 PM,33.1,21.9,64,30.06,10.0,NW,13.8,23.0,N/A,,Partly Cloudy,320,2013-01-17 03:56:00
10:56 PM,30.9,19.0,61,30.08,10.0,NW,12.7,19.6,N/A,,Clear,320,2013-01-17 04:56:00
11:56 PM,28.9,16.0,58,30.11,10.0,NW,8.1,-,N/A,,Clear,320,2013-01-17 05:56:00